Theta_e
301 301 300 301 304 307 310 311 314 314 313 312 317 322 326 324 324 323 324 325 325 327 328 332 330 330 333 333 333 332 331 331 331 330 331 332 332 331 331 331 331 330 330 329
298 297 299 300 302 307 308 309 310 310 310 311 314 316 317 320 324 325 325 324 323 323 325 330 334 330 329 332 333 333 333 332 332 332 332 332 331 332 332 332 331 331 330 330
298 297 299 297 297 299 301 305 306 311 311 310 311 313 313 314 317 321 322 323 323 322 322 323 332 334 331 330 331 332 332 333 333 334 334 332 332 333 333 333 332 331 330 330
298 296 299 300 297 297 299 300 304 307 311 312 310 309 311 312 314 317 320 322 323 322 320 320 323 332 335 334 332 331 332 333 334 334 333 332 332 333 334 333 333 332 331 330
298 298 299 300 299 298 297 304 305 306 308 311 312 312 308 309 311 314 316 320 322 322 323 320 318 325 332 334 334 333 332 332 332 333 333 333 333 334 335 333 332 332 332 331
300 299 300 300 300 302 301 302 302 304 305 309 307 311 309 308 312 313 315 316 319 321 322 323 320 319 319 329 333 334 333 332 332 332 332 333 333 334 332 332 332 332 332 331
298 299 299 300 301 302 302 302 299 304 304 303 304 308 308 308 310 313 313 315 317 319 321 320 321 318 320 323 328 333 333 332 332 332 332 332 332 333 332 332 332 333 331 330
300 300 299 300 301 299 300 301 299 300 303 300 300 306 308 309 308 310 310 310 313 317 319 320 319 318 321 322 324 327 329 329 330 331 330 331 332 331 331 329 327 325 323 321
299 299 298 298 299 299 299 301 300 302 302 306 304 304 305 308 308 310 311 311 311 314 314 317 316 317 319 319 320 323 324 323 325 325 325 326 328 327 323 321 319 315 312 313
297 297 297 300 299 300 298 298 303 304 301 301 304 305 305 307 307 307 310 312 311 309 309 310 311 312 311 309 313 316 317 317 316 318 320 321 320 318 316 314 312 310 309 310
295 297 298 301 302 301 302 301 299 303 305 302 302 303 306 307 307 306 306 308 309 309 308 307 307 306 306 305 308 309 311 311 310 309 311 313 311 312 310 312 310 311 310 307
296 297 296 296 298 299 302 302 301 302 300 300 303 304 305 305 306 306 307 307 305 305 303 302 302 303 303 301 301 302 302 304 305 305 306 306 309 309 304 305 306 304 300 299
296 296 297 295 299 302 302 302 302 302 303 304 304 300 303 303 302 303 306 305 304 302 301 300 299 299 299 298 297 297 299 299 299 301 302 299 298 297 300 297 296 295 295 294
296 297 296 296 296 296 296 297 297 298 301 301 303 302 300 301 301 302 304 303 302 301 300 299 298 297 297 296 295 294 294 295 295 296 295 293 293 293 293 293 293 293 293 292
297 296 295 296 296 296 296 296 296 297 298 300 301 300 303 302 303 303 304 303 300 299 298 298 297 296 294 292 292 292 292 293 294 294 294 293 291 291 291 291 291 290 290 289
295 295 293 293 293 294 296 296 297 298 299 298 300 301 302 302 302 302 303 303 301 299 298 296 294 294 293 291 290 290 290 291 292 291 290 291 291 290 290 289 288 288 287 287
295 295 294 293 292 293 295 294 295 297 299 299 300 301 301 302 302 303 303 302 301 299 296 294 293 293 291 290 289 288 288 289 289 288 287 288 288 287 287 287 287 286 286 285
294 295 295 294 289 294 295 295 298 298 299 300 300 301 301 301 303 303 302 302 300 297 294 293 292 291 289 288 288 288 288 287 287 287 287 287 286 286 286 286 285 285 284 284
293 294 295 294 292 293 293 295 296 298 298 298 299 299 300 300 300 301 300 300 298 295 293 291 290 289 288 288 287 287 287 286 287 286 286 285 285 284 284 284 283 283 283 283
290 293 295 287 292 293 293 294 298 299 297 298 297 299 300 301 301 303 298 296 295 293 292 290 289 288 288 287 287 287 286 286 285 285 284 284 284 284 283 283 283 283 283 282
292 293 294 295 294 293 292 293 296 297 299 296 298 299 301 301 302 300 296 294 293 292 291 289 288 288 287 288 288 287 286 285 284 283 283 283 283 283 283 283 283 282 282 283
291 291 291 290 292 293 292 292 296 298 295 296 297 298 300 301 297 295 295 295 293 291 290 288 288 287 287 287 287 286 285 284 283 283 283 283 282 282 282 282 282 283 284 284
291 291 293 291 292 292 291 293 294 291 292 292 294 297 299 297 296 296 295 294 292 290 289 288 288 288 287 287 286 285 285 284 284 283 282 282 281 281 282 284 284 283 283 282
288 289 290 291 293 290 291 291 292 292 291 291 293 295 296 296 294 294 293 291 290 289 289 289 288 286 285 286 286 286 285 285 284 283 282 281 282 283 283 282 282 280 280 279
292 289 291 291 292 292 292 292 292 291 292 292 293 293 294 294 293 293 292 291 291 290 287 287 287 287 288 287 287 285 285 284 283 282 282 282 282 281 281 280 279 279 279 279
292 291 292 294 293 293 292 290 289 291 292 293 293 293 292 293 293 292 292 291 289 288 288 288 289 288 289 288 287 286 285 284 284 283 282 281 281 280 279 279 278 278 278 277
Wind_Speed
4 3 5 4 6 9 9 8 10 7 8 12 13 19 23 22 16 14 20 19 20 19 22 18 23 26 25 26 27 26 26 27 27 28 22 20 21 20 19 18 18 16 16 15
2 4 2 2 5 6 10 13 15 13 14 12 16 21 19 22 22 23 20 18 20 19 17 15 21 25 29 29 29 28 27 28 33 30 24 18 20 20 19 17 17 20 18 17
5 4 4 7 5 7 11 14 10 7 12 17 16 28 28 26 23 22 23 23 21 19 19 17 19 27 28 28 31 31 30 28 28 26 23 19 13 13 16 16 16 19 18 20
4 3 3 4 5 7 9 6 13 12 6 7 9 12 15 21 29 28 24 22 23 22 18 16 17 22 27 32 29 29 30 30 29 27 24 25 22 19 18 18 20 21 22 22
2 3 6 8 5 4 4 6 3 8 12 9 16 9 15 19 19 21 26 25 23 23 22 20 19 23 24 22 25 28 27 28 28 29 28 26 23 20 15 14 18 16 15 18
11 6 6 11 6 5 1 4 6 7 8 12 19 15 13 17 14 13 17 22 25 24 21 21 24 22 22 20 22 24 28 28 29 29 29 26 23 19 18 16 14 14 14 13
8 5 3 8 7 6 5 4 3 6 7 10 10 15 20 10 9 6 5 9 16 20 21 20 19 16 17 17 19 23 25 26 26 27 26 24 21 18 19 18 15 13 12 11
6 2 4 6 9 4 12 12 5 7 7 9 16 11 6 2 12 11 12 14 9 12 16 18 16 20 17 13 14 16 20 22 23 22 24 24 23 22 18 15 13 10 9 5
4 5 6 9 6 6 5 11 18 11 15 6 7 19 17 9 10 8 7 7 12 6 7 10 10 14 11 9 12 16 19 21 24 25 24 25 25 23 18 14 11 9 5 4
1 8 6 3 4 10 13 3 5 7 6 9 9 16 11 3 13 17 10 9 6 4 2 3 3 9 10 9 12 17 19 22 22 27 29 29 27 25 22 16 7 10 6 3
3 4 4 3 6 8 6 5 7 5 5 8 8 8 2 2 5 10 10 6 6 3 2 1 4 6 11 13 14 19 23 25 25 24 30 32 27 22 18 20 14 6 6 7
5 3 6 12 13 5 5 15 14 8 10 10 12 18 3 4 6 7 12 8 3 0 2 3 5 9 10 12 15 18 21 24 27 25 22 21 25 19 16 15 15 15 13 13
3 3 6 7 2 2 5 6 12 16 15 17 15 16 8 7 14 11 7 6 5 4 7 8 7 10 13 13 14 20 23 22 22 23 21 20 22 19 22 19 20 15 12 11
4 7 9 11 8 4 12 15 17 12 9 14 17 26 24 25 23 22 13 6 6 6 6 8 10 10 14 16 16 19 22 25 26 27 25 21 23 20 20 19 17 15 13 9
4 6 8 16 19 18 20 22 22 16 22 15 24 21 24 21 15 17 14 8 8 8 9 9 9 13 15 16 16 17 21 28 29 28 29 25 22 19 19 17 17 12 12 10
5 9 3 12 19 21 23 24 21 22 24 19 26 26 30 19 20 17 13 10 12 11 10 9 8 11 18 17 19 21 22 23 26 27 26 24 23 20 17 14 13 12 10 10
6 4 3 11 8 15 12 16 20 19 20 20 17 27 14 15 13 9 10 12 12 12 12 10 11 13 14 18 19 21 23 23 23 22 21 19 18 17 16 12 12 10 9 8
13 8 4 8 5 7 7 7 6 11 16 17 20 22 18 15 8 6 11 13 14 14 15 13 13 15 14 17 20 24 23 21 19 21 19 16 15 15 13 11 10 9 8 8
11 8 5 4 4 15 15 6 4 7 13 14 20 14 15 18 14 15 12 12 13 13 13 14 13 12 14 16 21 25 21 18 18 18 17 15 14 14 13 11 9 8 8 10
6 11 8 3 5 6 4 1 3 2 10 6 6 13 15 12 10 10 15 12 14 18 17 19 18 16 15 17 19 22 20 19 17 17 17 14 13 12 12 11 10 9 10 10
3 4 14 11 9 10 15 12 2 3 2 7 14 17 14 14 8 1 14 13 20 20 18 18 19 16 16 20 21 20 19 16 16 15 14 13 12 11 11 10 9 10 10 10
8 6 5 4 6 11 10 4 7 2 2 4 12 13 11 13 4 11 15 15 15 17 18 16 17 19 20 21 21 20 19 18 17 14 12 11 11 10 10 9 10 9 8 7
5 7 3 10 7 11 6 11 6 6 14 8 8 7 7 7 5 12 15 15 14 19 18 21 20 21 21 21 20 19 16 16 15 13 13 13 11 10 9 8 7 6 4 4
6 8 5 2 6 18 20 20 17 10 7 7 5 4 5 7 13 12 12 11 10 16 21 27 23 17 19 18 16 14 16 17 17 15 15 14 12 8 7 6 6 7 6 5
8 7 7 12 19 16 23 19 16 13 6 3 3 2 3 9 8 11 10 11 16 18 16 20 20 21 21 22 21 20 21 21 21 18 14 10 7 7 8 8 8 8 7 7
10 10 11 8 10 3 4 2 4 7 13 7 3 1 5 7 12 11 10 13 14 15 20 21 23 23 22 22 21 19 18 17 16 13 11 11 11 11 10 9 7 7 6 5
Wind_Direction
12 228 230 252 261 291 283 257 253 265 277 322 268 257 248 248 236 236 242 238 237 225 232 214 207 203 203 207 208 207 204 204 202 208 206 206 215 220 219 219 221 223 223 224
291 281 70 310 267 274 262 260 256 269 276 277 273 269 264 259 251 245 240 236 236 237 234 215 204 202 203 204 207 212 210 203 206 202 199 213 217 223 226 221 218 221 226 231
313 9 281 318 281 250 247 255 256 286 304 272 275 277 261 257 250 248 246 245 241 236 233 223 208 206 206 207 207 207 210 209 202 203 204 205 213 217 216 221 220 221 227 231
295 330 311 315 286 244 264 251 247 264 285 264 197 275 250 231 239 238 238 237 238 235 233 229 218 214 209 213 208 207 207 207 207 202 201 201 202 205 211 215 227 226 226 229
350 272 274 273 256 205 273 324 266 252 257 293 248 260 260 242 253 242 234 234 235 234 232 223 214 213 215 215 213 212 209 208 206 204 203 201 208 214 212 207 216 224 230 237
263 286 268 247 261 223 268 279 242 255 259 250 237 229 265 235 248 258 235 239 235 232 234 230 223 227 231 222 213 210 209 209 206 205 206 206 209 206 204 211 210 219 221 225
304 234 248 228 246 198 204 201 221 210 206 244 200 213 249 282 293 259 282 276 257 236 234 237 227 216 216 212 216 211 207 207 206 205 205 207 205 204 201 208 207 212 202 202
327 311 194 175 234 276 211 208 216 234 212 258 207 231 234 324 247 265 288 269 272 256 241 239 226 213 196 196 197 202 202 198 195 197 194 189 183 177 181 168 155 152 159 156
314 265 304 232 225 225 183 215 241 289 281 264 231 245 264 262 278 265 272 275 255 257 258 247 221 193 179 165 180 182 178 174 179 175 171 162 157 147 128 114 110 112 108 92
312 289 273 305 201 235 241 357 207 207 244 246 228 244 245 228 237 249 246 260 260 303 248 207 195 159 138 128 139 149 158 156 152 153 147 137 131 131 136 137 150 141 155 138
214 233 271 299 222 255 188 218 222 287 254 265 261 241 143 4 4 321 310 321 323 316 324 220 141 135 131 128 133 137 145 145 143 142 143 140 136 145 149 150 155 148 179 169
198 291 278 265 269 283 279 254 235 236 242 239 264 265 277 187 359 333 318 326 309 223 129 132 125 123 115 113 117 121 128 130 139 140 134 136 144 148 151 123 143 155 159 150
183 253 300 291 172 163 248 273 265 261 261 253 254 259 253 298 296 304 312 306 287 218 163 145 133 120 119 110 106 114 124 126 132 141 135 132 122 132 123 139 128 137 131 131
215 233 229 257 292 316 288 283 276 278 285 279 259 265 266 272 278 288 279 243 225 218 208 161 138 130 122 118 118 117 121 130 134 133 126 123 121 127 125 119 127 127 124 118
222 251 241 256 269 273 267 266 269 252 252 256 270 272 273 271 289 283 286 224 202 200 199 182 161 138 134 125 120 121 126 136 135 132 129 124 125 124 123 123 124 116 120 116
196 260 254 282 275 264 266 265 263 259 258 249 251 267 261 278 274 267 251 221 207 196 191 175 154 145 139 136 128 131 133 132 136 134 128 127 132 133 117 125 113 117 112 95
237 254 268 283 317 314 276 251 246 250 241 231 234 239 275 270 282 269 242 225 219 197 169 171 162 150 145 134 134 128 132 135 129 126 126 126 126 123 116 125 119 106 102 102
247 243 244 287 318 251 261 300 248 257 261 235 246 254 262 266 276 245 229 215 202 188 159 161 157 144 140 134 133 130 131 135 132 122 124 126 130 124 125 126 119 120 119 101
222 239 243 253 251 290 286 270 183 208 274 247 253 277 291 276 269 259 226 209 188 172 153 143 133 134 138 138 138 139 137 130 128 128 129 147 143 137 133 133 134 132 110 87
224 225 229 150 257 262 257 190 130 87 280 143 316 293 279 260 227 233 174 162 153 154 149 140 144 150 146 147 146 142 140 145 144 150 153 147 140 140 145 145 140 110 92 87
189 213 229 231 248 267 260 242 127 250 303 315 312 285 255 222 226 353 141 145 149 145 143 142 146 151 157 157 158 156 157 156 158 158 147 140 144 149 147 139 114 101 90 78
192 182 204 200 227 260 217 118 206 216 133 299 308 296 255 195 153 145 131 145 140 138 145 149 149 160 165 167 170 171 169 166 161 153 150 152 162 158 140 131 108 91 85 80
237 211 216 208 220 254 237 264 248 335 304 307 287 317 166 150 151 147 145 146 146 146 149 161 162 167 174 180 184 178 170 169 165 165 170 172 165 156 142 124 109 109 120 134
236 218 244 314 246 247 258 266 270 282 269 283 299 271 205 154 145 141 139 140 138 154 164 174 178 173 178 183 187 191 185 182 183 183 185 182 178 157 149 147 161 174 185 193
241 164 229 259 265 269 274 263 252 258 257 332 319 157 164 145 137 145 148 158 167 171 164 171 173 181 189 190 194 195 192 190 190 194 189 179 176 177 180 188 195 202 210 205
201 215 209 226 223 240 258 246 299 237 234 243 229 174 132 158 158 165 171 165 159 156 173 183 193 197 199 200 202 203 201 201 203 200 197 196 196 199 200 200 208 220 222 206